Weather History for Norfolk, VA

Change the Weather History Date:

Thursday, October 25, 2012

  Actual Average Record
Temperature  
Mean Temperature 64 °F 59 °F  
Max Temperature 72 °F 67 °F 83 °F (2001)
Min Temperature 56 °F 51 °F 34 °F (1969)
Degree Days  
Heating Degree Days 1 7  
Month to date heating degree days 81 101  
Since 1 July heating degree days 85 112  
Cooling Degree Days 0 1  
Month to date cooling degree days 65 50  
Year to date cooling degree days 1847 1615  
Growing Degree Days 14 (Base 50)    
Moisture  
Dew Point 61 °F    
Average Humidity 83    
Maximum Humidity 93    
Minimum Humidity 73    
Precipitation  
Precipitation 0.00 in 0.11 in 2.11 in (1981)
Month to date precipitation 2.58 2.76  
Year to date precipitation 36.53 39.46  
Snow  
Snow 0.00 in 0.00 in 0.00 in (2002)
Month to date snowfall 0.0 0.0  
Since 1 July snowfall 0.0 0.0  
Snow Depth 0.00 in    
Sea Level Pressure  
Sea Level Pressure 30.15 in    
Wind  
Wind Speed 7 mph (ENE)    
Max Wind Speed 13 mph    
Max Gust Speed 20 mph    
Visibility 9 miles    
Events      
T = Trace of Precipitation, MM = Missing Value Source: NWS Daily Summary

Daily Weather History Graph

Daily Weather History Graph

Search for Another Location

Airport:

Trip Planner

Search our weather history database for the weather conditions in past years. The results will help you decide how hot, cold, wet, or windy it might be!

Date:

Astronomy

Oct. 25, 2012 Rise Set
Actual Time 7:22 AM EDT 6:14 PM EDT
Civil Twilight 6:55 AM EDT 6:41 PM EDT
Nautical Twilight 6:25 AM EDT 7:11 PM EDT
Astronomical Twilight 5:55 AM EDT 7:41 PM EDT
Moon 3:55 PM EDT (10/25) 3:21 AM EDT (10/25)
Length of Visible Light 11h 45m
Length of Day
10h 52m
Waxing Gibbous, 84% of the Moon is Illuminated
Oct 25
Waxing Gibbous
Oct 29
Full
Nov 6
Last Quarter
Nov 13
New
Nov 20
First Quarter

Hourly Weather History & Observations

Time (EDT) Temp. Dew Point Humidity Pressure Visibility Wind Dir Wind Speed Gust Speed Precip Events Conditions
12:51 AM 61.0 °F 55.9 °F 83% 30.14 in 10.0 mi SSW 4.6 mph - N/A   Clear
1:51 AM 61.0 °F 57.0 °F 87% 30.14 in 10.0 mi SW 6.9 mph - N/A   Clear
2:51 AM 59.0 °F 55.9 °F 90% 30.13 in 10.0 mi SSW 5.8 mph - N/A   Clear
3:51 AM 60.1 °F 55.9 °F 86% 30.12 in 10.0 mi SSW 4.6 mph - N/A   Clear
4:51 AM 60.1 °F 57.0 °F 90% 30.12 in 10.0 mi Calm Calm - N/A   Clear
5:51 AM 59.0 °F 57.0 °F 93% 30.14 in 10.0 mi Calm Calm - N/A   Clear
6:51 AM 57.9 °F 55.9 °F 93% 30.14 in 9.0 mi Calm Calm - N/A   Clear
7:51 AM 59.0 °F 57.0 °F 93% 30.15 in 8.0 mi NNE 3.5 mph - N/A   Clear
8:08 AM 62.6 °F 60.8 °F 94% 30.16 in 6.0 mi NE 4.6 mph - N/A   Partly Cloudy
8:51 AM 66.0 °F 63.0 °F 90% 30.17 in 7.0 mi NE 6.9 mph - N/A   Clear
9:51 AM 68.0 °F 63.0 °F 84% 30.18 in 10.0 mi ENE 6.9 mph - N/A   Partly Cloudy
10:51 AM 70.0 °F 63.0 °F 78% 30.19 in 10.0 mi ENE 8.1 mph - N/A   Clear
11:51 AM 72.0 °F 63.0 °F 73% 30.18 in - North - - N/A   Clear
12:51 PM 71.1 °F 63.0 °F 75% 30.17 in - North - - N/A   Clear
1:51 PM 71.1 °F 63.0 °F 75% 30.15 in - NE 10.4 mph - N/A   Clear
2:51 PM 71.1 °F 63.0 °F 75% 30.14 in 10.0 mi ENE 8.1 mph - N/A   Clear
3:51 PM 70.0 °F 62.1 °F 76% 30.14 in 10.0 mi NNE 10.4 mph - N/A   Clear
4:41 PM 68.0 °F 62.6 °F 83% 30.15 in 10.0 mi NE 9.2 mph - N/A   Mostly Cloudy
4:51 PM 68.0 °F 63.0 °F 84% 30.15 in 10.0 mi NE 9.2 mph - N/A   Mostly Cloudy
5:09 PM 66.2 °F 62.6 °F 88% 30.15 in 9.0 mi NE 11.5 mph - N/A   Overcast
5:38 PM 66.2 °F 62.6 °F 88% 30.15 in 9.0 mi ENE 8.1 mph - N/A   Mostly Cloudy
5:48 PM 66.2 °F 62.6 °F 88% 30.16 in 9.0 mi ENE 9.2 mph - N/A   Mostly Cloudy
5:51 PM 66.0 °F 63.0 °F 90% 30.16 in 9.0 mi NE 10.4 mph - N/A   Mostly Cloudy
6:09 PM 66.2 °F 62.6 °F 88% 30.16 in 10.0 mi ENE 9.2 mph - N/A   Mostly Cloudy
6:25 PM 66.2 °F 62.6 °F 88% 30.16 in 9.0 mi NE 8.1 mph - N/A   Overcast
6:51 PM 66.0 °F 62.1 °F 87% 30.16 in 10.0 mi ENE 8.1 mph - N/A   Overcast
7:51 PM 66.0 °F 63.0 °F 90% 30.17 in 9.0 mi ENE 9.2 mph - N/A   Overcast
8:06 PM 66.2 °F 62.6 °F 88% 30.16 in 10.0 mi ENE 9.2 mph - N/A   Overcast
8:51 PM 66.0 °F 63.0 °F 90% 30.16 in 9.0 mi ENE 9.2 mph - N/A   Overcast
9:51 PM 66.0 °F 63.0 °F 90% 30.15 in 9.0 mi ENE 10.4 mph - N/A   Overcast
10:51 PM 66.0 °F 64.0 °F 93% 30.15 in 9.0 mi ENE 12.7 mph - N/A   Overcast
11:51 PM 66.0 °F 64.0 °F 93% 30.14 in 9.0 mi East 6.9 mph - N/A   Overcast